N4WNX-4 Weather Reports


time (UTC)temp
C
wind
direction
speed
KPH
gust
KPH
rain 1hr
cm
rain 24hr
cm
rain mn
cm
humidity
%
barometer
mb
20260906105937 22 0 0.0 0.0 0.00 0.00 0.00 89 1013.5
20260906105038 22 0 0.0 0.0 0.00 0.00 0.00 89 1013.6
20260906104137 22 0 0.0 0.0 0.00 0.00 0.00 88 1013.6
20260906103237 22 0 0.0 0.0 0.00 0.00 0.00 88 1013.4
20260906102337 22 0 0.0 0.0 0.00 0.00 0.00 88 1013.5
20260906101438 23 0 0.0 0.0 0.00 0.00 0.00 88 1013.6
20260906100538 23 0 0.0 0.0 0.00 0.00 0.00 87 1013.7
20260906095637 23 0 0.0 0.0 0.00 0.00 0.00 87 1013.5
20260906094945 23 0 0.0 0.0 0.00 0.00 0.00 87 1013.6
20260906093837 23 0 0.0 0.0 0.00 0.00 0.00 87 1013.5
20260906092937 23 338 0.0 3.2 0.00 0.00 0.00 87 1013.4
20260906092037 23 322 1.6 6.4 0.00 0.00 0.00 87 1013.5
20260906091137 23 273 0.0 1.6 0.00 0.00 0.00 87 1013.6
20260906090237 23 269 0.0 3.2 0.00 0.00 0.00 87 1013.5
20260906085338 23 267 1.6 3.2 0.00 0.00 0.00 86 1013.1
20260906084438 23 267 0.0 1.6 0.00 0.00 0.00 87 1013.2
20260906083745 23 267 0.0 1.6 0.00 0.00 0.00 87 1013.3
20260906082638 23 267 0.0 1.6 0.00 0.00 0.00 86 1013.1
20260906081738 23 0 0.0 0.0 0.00 0.00 0.00 86 1013.1
20260906080837 23 0 0.0 0.0 0.00 0.00 0.00 86 1012.9
20260906075937 23 0 0.0 0.0 0.00 0.00 0.00 85 1012.9
20260906075037 23 0 0.0 0.0 0.00 0.00 0.00 85 1012.8
20260906074137 24 268 0.0 1.6 0.00 0.00 0.00 85 1012.7
20260906073237 24 271 0.0 1.6 0.00 0.00 0.00 85 1012.7
20260906072337 24 264 0.0 3.2 0.00 0.00 0.00 85 1012.8
20260906071437 24 257 1.6 4.8 0.00 0.00 0.00 84 1013.0
20260906070537 24 327 1.6 4.8 0.00 0.00 0.00 84 1013.1
20260906065638 24 319 1.6 4.8 0.00 0.00 0.00 84 1013.1
20260906064737 24 293 1.6 6.4 0.00 0.00 0.00 83 1012.9
20260906063837 24 322 0.0 3.2 0.00 0.00 0.00 83 1013.0
20260906062938 24 327 0.0 3.2 0.00 0.00 0.00 83 1013.1
20260906062037 25 0 0.0 0.0 0.00 0.00 0.00 82 1013.2
20260906061345 25 327 0.0 1.6 0.00 0.00 0.00 82 1013.4
20260906060237 25 327 0.0 1.6 0.00 0.00 0.00 82 1013.5
20260906055337 25 327 0.0 1.6 0.00 0.00 0.00 82 1013.6
20260906054438 25 327 0.0 1.6 0.00 0.00 0.00 82 1013.8
20260906053538 25 0 0.0 0.0 0.00 0.00 0.00 81 1013.7
20260906052637 25 327 1.6 3.2 0.00 0.00 0.00 81 1014.0
20260906051737 25 321 1.6 3.2 0.00 0.00 0.00 80 1013.8
20260906050837 25 316 0.0 1.6 0.00 0.00 0.00 80 1013.9
20260906045937 25 316 0.0 1.6 0.00 0.00 0.00 79 1013.9
20260906045037 25 316 0.0 1.6 0.00 0.00 0.00 79 1014.1
20260906044345 25 316 0.0 1.6 0.00 0.00 0.00 79 1014.3
20260906043237 25 316 0.0 1.6 0.00 0.00 0.00 79 1014.3
20260906042337 26 0 0.0 0.0 0.00 0.00 0.00 78 1014.1
20260906041645 26 0 0.0 0.0 0.00 0.00 0.00 78 1014.1
20260906040745 26 0 0.0 0.0 0.00 0.00 0.00 78 1014.3
20260906035637 26 0 0.0 0.0 0.00 0.00 0.00 77 1013.9
20260906034945 26 319 0.0 1.6 0.00 0.00 0.00 77 1013.9
20260906033837 26 319 0.0 1.6 0.00 0.00 0.00 77 1013.8
20260906032937 26 318 0.0 1.6 0.00 0.00 0.00 76 1014.0
20260906032037 26 321 1.6 4.8 0.00 0.00 0.00 76 1013.9
20260906031138 26 321 1.6 4.8 0.00 0.00 0.00 76 1014.2
20260906030237 26 319 0.0 1.6 0.00 0.00 0.00 75 1014.2
20260906025338 26 320 0.0 3.2 0.00 0.00 0.00 75 1014.3
20260906024437 26 331 1.6 3.2 0.00 0.00 0.00 75 1014.5
20260906023538 27 341 0.0 3.2 0.00 0.00 0.00 75 1014.3
20260906022845 27 341 0.0 3.2 0.00 0.00 0.00 75 1014.3
20260906021737 27 337 1.6 4.8 0.00 0.00 0.00 75 1014.6
20260906020838 27 326 0.0 3.2 0.00 0.00 0.00 75 1014.4
20260906020145 27 326 0.0 1.6 0.00 0.00 0.00 74 1014.3
20260906015037 27 315 3.2 11.3 0.00 0.00 0.00 74 1014.4
20260906014137 27 297 3.2 11.3 0.00 0.00 0.00 73 1014.3
20260906013237 27 332 1.6 4.8 0.00 0.00 0.00 72 1014.1
20260906012545 27 333 0.0 1.6 0.00 0.00 0.00 70 1013.9
20260906011437 28 0 0.0 0.0 0.00 0.00 0.00 70 1013.7
20260906010537 28 0 0.0 0.0 0.00 0.00 0.00 67 1013.5
20260906005637 28 333 0.0 1.6 0.00 0.00 0.00 65 1013.4
20260906004737 29 333 1.6 3.2 0.00 0.00 0.00 63 1013.0
20260906003837 29 333 0.0 1.6 0.00 0.00 0.00 61 1012.9
20260906002937 29 330 1.6 4.8 0.00 0.00 0.00 61 1012.8
20260906002037 30 326 0.0 3.2 0.00 0.00 0.00 59 1012.5
20260906001137 30 326 0.0 3.2 0.00 0.00 0.00 57 1012.6
20260906000445 31 324 1.6 9.7 0.00 0.00 0.00 56 1012.7
20260905235338 31 162 1.6 4.8 0.00 0.00 0.00 58 1012.9
20260905234437 32 47 3.2 6.4 0.00 0.00 0.00 59 1013.0
20260905233537 32 29 1.6 6.4 0.00 0.00 0.00 59 1013.3
20260905232638 33 125 0.0 3.2 0.00 0.00 0.00 55 1012.8
20260905231738 33 157 1.6 6.4 0.00 0.00 0.00 54 1012.8
20260905231045 34 161 1.6 8.0 0.00 0.00 0.00 55 1012.9
20260905225937 34 151 0.0 1.6 0.00 0.00 0.00 54 1012.6
20260905225038 35 149 0.0 8.0 0.00 0.00 0.00 53 1012.5
20260905224345 35 148 1.6 6.4 0.00 0.00 0.00 50 1012.4
20260905223237 35 152 3.2 8.0 0.00 0.00 0.00 49 1012.2
20260905222337 35 146 3.2 8.0 0.00 0.00 0.00 49 1012.1
20260905221437 35 150 3.2 9.7 0.00 0.00 0.00 48 1011.9
20260905220538 35 148 3.2 8.0 0.00 0.00 0.00 51 1011.9
20260905215637 35 136 4.8 11.3 0.00 0.00 0.00 50 1011.7
20260905214737 35 141 0.0 6.4 0.00 0.00 0.00 49 1011.7
20260905213837 35 110 0.0 1.6 0.00 0.00 0.00 51 1011.9
20260905212937 36 110 0.0 1.6 0.00 0.00 0.00 49 1012.1
20260905212037 36 110 0.0 1.6 0.00 0.00 0.00 50 1012.4
20260905211137 36 110 0.0 3.2 0.00 0.00 0.00 50 1012.3
20260905210237 36 142 1.6 8.0 0.00 0.00 0.00 50 1012.4
20260905205337 36 146 1.6 8.0 0.00 0.00 0.00 49 1012.3
20260905204437 36 144 3.2 8.0 0.00 0.00 0.00 49 1012.3
20260905203537 35 148 1.6 6.4 0.00 0.00 0.00 52 1012.4
20260905202638 35 148 0.0 1.6 0.00 0.00 0.00 53 1012.6
20260905201945 35 148 0.0 1.6 0.00 0.00 0.00 52 1012.6
20260905200837 35 162 0.0 3.2 0.00 0.00 0.00 52 1013.0
20260905195937 35 140 3.2 11.3 0.00 0.00 0.00 50 1013.0
20260905195037 36 360 1.6 4.8 0.00 0.00 0.00 50 1012.9
20260905194138 35 303 3.2 8.0 0.00 0.00 0.00 48 1013.1
20260905193445 35 130 3.2 11.3 0.00 0.00 0.00 50 1013.2
20260905192337 35 149 3.2 9.7 0.00 0.00 0.00 51 1013.2
20260905191645 35 160 1.6 6.4 0.00 0.00 0.00 51 1013.3
20260905190537 35 151 3.2 12.9 0.00 0.00 0.00 52 1013.5
20260905185638 35 132 4.8 16.1 0.00 0.00 0.00 54 1013.7
20260905184737 34 176 4.8 16.1 0.00 0.00 0.00 56 1013.9
20260905183837 34 52 1.6 9.7 0.00 0.00 0.00 56 1014.0
20260905182937 34 91 1.6 9.7 0.00 0.00 0.00 58 1014.2
20260905182038 33 158 6.4 11.3 0.00 0.00 0.00 58 1014.4
20260905181137 34 124 1.6 11.3 0.00 0.00 0.00 58 1014.5
20260905180445 34 18 1.6 4.8 0.00 0.00 0.00 61 1014.5
20260905175337 33 328 3.2 6.4 0.00 0.00 0.00 62 1014.7
20260905174437 33 114 1.6 12.9 0.00 0.00 0.00 60 1014.9
20260905173537 33 205 3.2 8.0 0.00 0.00 0.00 61 1015.0
20260905172637 33 342 3.2 9.7 0.00 0.00 0.00 63 1015.2
20260905171737 33 27 1.6 4.8 0.00 0.00 0.00 63 1015.3
20260905170838 32 45 3.2 9.7 0.00 0.00 0.00 64 1015.3
20260905170145 32 302 4.8 11.3 0.00 0.00 0.00 63 1015.4
20260905165037 32 276 1.6 4.8 0.00 0.00 0.00 66 1015.7
20260905164138 32 329 1.6 8.0 0.00 0.00 0.00 64 1015.8
20260905163237 32 312 1.6 8.0 0.00 0.00 0.00 66 1016.0
20260905162338 31 116 3.2 6.4 0.00 0.00 0.00 66 1016.1
20260905161437 31 339 1.6 4.8 0.00 0.00 0.00 68 1016.2
20260905160537 31 292 1.6 3.2 0.00 0.00 0.00 69 1016.4
20260905155637 31 124 1.6 4.8 0.00 0.00 0.00 73 1016.4
20260905154737 31 110 1.6 4.8 0.00 0.00 0.00 73 1016.6
20260905153837 30 11 0.0 4.8 0.00 0.00 0.00 75 1016.6
20260905153145 30 296 1.6 6.4 0.00 0.00 0.00 77 1016.6
20260905152037 30 113 1.6 6.4 0.00 0.00 0.00 77 1016.7
20260905151137 29 143 1.6 6.4 0.00 0.00 0.00 78 1016.8
20260905150237 28 191 0.0 3.2 0.00 0.00 0.00 82 1016.8
20260905145545 28 165 1.6 8.0 0.00 0.00 0.00 83 1016.8
20260905144437 28 137 3.2 6.4 0.00 0.00 0.00 82 1017.1
20260905143537 28 148 1.6 6.4 0.00 0.00 0.00 85 1017.0
20260905142637 27 157 1.6 6.4 0.00 0.00 0.00 87 1017.1
20260905141737 26 1 1.6 6.4 0.00 0.00 0.00 91 1017.1
20260905140838 26 321 1.6 6.4 0.00 0.00 0.00 91 1017.1
20260905135937 25 329 1.6 4.8 0.00 0.00 0.00 92 1017.2
20260905135037 25 173 0.0 4.8 0.00 0.00 0.00 94 1017.1
20260905134137 25 174 1.6 6.4 0.00 0.00 0.00 94 1017.1
20260905133237 24 168 3.2 8.0 0.00 0.00 0.00 95 1017.0
20260905132338 24 166 1.6 8.0 0.00 0.00 0.00 96 1017.2
20260905131437 24 169 1.6 6.4 0.00 0.00 0.00 96 1017.3
20260905130537 24 169 1.6 8.0 0.00 0.00 0.00 97 1017.3
20260905125845 24 165 0.0 6.4 0.00 0.00 0.00 97 1017.4
20260905124737 23 198 1.6 6.4 0.00 0.00 0.00 97 1017.2
20260905123837 23 299 1.6 3.2 0.00 0.00 0.00 97 1017.2
20260905122937 23 271 1.6 4.8 0.00 0.00 0.00 97 1017.2
20260905122037 23 259 1.6 3.2 0.00 0.00 0.00 97 1017.1
20260905121138 23 271 0.0 4.8 0.00 0.00 0.00 97 1017.2
20260905120237 23 303 1.6 4.8 0.00 0.00 0.00 97 1017.1
20260905115337 23 304 1.6 4.8 0.00 0.00 0.00 97 1017.0
20260905114437 23 304 0.0 3.2 0.00 0.00 0.00 97 1016.9
20260905113537 23 303 1.6 4.8 0.00 0.00 0.00 97 1016.7
20260905112638 23 301 0.0 3.2 0.00 0.00 0.00 97 1016.6
20260905111737 23 301 1.6 4.8 0.00 0.00 0.00 97 1016.5
20260905110837 23 300 1.6 3.2 0.00 0.00 0.00 97 1016.4